This is the latest recevied weather packets stored in our database for station/object SHLBYV-WX. If no packets are shown the sender has not sent any weather packets the latest 10 day(s).
| Time | Temp. | Humidity | Pressure | Rain* | Wind** | Luminosity | Snow |
|---|---|---|---|---|---|---|---|
| 1777807868 | 3.89° C | 70% | 983.2 hPa | 0 mm | - | - | - |
| 1777806951 | 3.89° C | 70% | 983.2 hPa | 0 mm | - | - | - |
| 1777806083 | 3.33° C | 70% | 983.2 hPa | 0 mm | - | - | - |
| 1777805150 | 3.33° C | 66% | 983 hPa | 0 mm | - | - | - |
| 1777804266 | 3.33° C | 70% | 983.2 hPa | 0 mm | - | - | - |
| 1777803351 | 2.78° C | 70% | 983.2 hPa | 0 mm | - | - | - |
| 1777802484 | 2.78° C | 70% | 983.2 hPa | 0 mm | - | - | - |
| 1777801550 | 2.78° C | 69% | 983.3 hPa | 0 mm | - | - | - |
| 1777800670 | 2.78° C | 71% | 983.3 hPa | 0 mm | - | - | - |
| 1777799750 | 2.22° C | 71% | 983.3 hPa | 0 mm | - | - | - |
| 1777798880 | 2.22° C | 71% | 983.3 hPa | 0 mm | - | - | - |
| 1777797950 | 2.22° C | 67% | 983.6 hPa | 0 mm | - | - | - |
| 1777797069 | 2.22° C | 69% | 983.8 hPa | 0 mm | - | - | - |
| 1777796150 | 2.22° C | 69% | 983.8 hPa | 0 mm | - | - | - |
| 1777795276 | 2.22° C | 70% | 983.3 hPa | 0 mm | - | - | - |
| 1777794351 | 2.22° C | 69% | 984 hPa | 0 mm | - | - | - |
| 1777793469 | 2.22° C | 69% | 984 hPa | 0 mm | - | - | - |
| 1777792549 | 2.22° C | 69% | 984 hPa | 0 mm | - | - | - |
| 1777791679 | 2.22° C | 69% | 984 hPa | 0 mm | - | - | - |
| 1777790751 | 2.22° C | 67% | 984.9 hPa | 0 mm | - | - | - |
| 1777789866 | 2.22° C | 68% | 984.9 hPa | 0 mm | - | - | - |
| 1777788950 | 2.22° C | 68% | 984.9 hPa | 0 mm | - | - | - |
| 1777788093 | 2.22° C | 68% | 984.9 hPa | 0 mm | - | - | - |
| 1777787150 | 2.78° C | 66% | 985.4 hPa | 0 mm | - | - | - |
| 1777785349 | 2.78° C | 69% | 985.6 hPa | 0 mm | - | - | - |
* Rain latest hour (hover to see other rain measurements)
** Current wind speed in m/s (hover to see current wind gust speed)